Dewpoint
56 57 57 58 58 58 59 59 59 59 59 60 60 60 59 59 57 52 30 43 48 61 54 38 34 34 34 35 34 29 19 16 20 18 20 22 21 21 21 23 20 22 32 21 32
56 56 57 57 58 58 59 59 59 60 60 60 60 59 59 59 50 41 50 60 62 61 36 31 32 33 30 33 34 25 18 15 20 24 25 24 23 23 21 21 20 19 21 23 33
56 57 57 57 58 58 59 59 60 60 60 60 59 59 59 57 33 29 57 59 62 56 37 35 33 32 28 34 35 30 20 24 26 24 26 25 24 25 23 21 21 20 23 25 27
58 57 57 57 57 58 59 60 60 60 60 59 59 59 59 49 25 39 58 58 60 44 35 33 30 29 27 26 31 32 29 28 30 29 27 25 26 25 25 23 25 27 26 26 23
58 58 57 57 57 58 59 60 61 61 60 58 58 59 50 33 31 51 59 57 43 39 33 31 29 29 25 27 25 27 26 26 28 27 26 26 24 24 23 24 25 22 24 29 30
58 58 57 57 58 58 59 60 60 60 58 58 58 58 39 27 46 51 48 41 38 35 33 31 29 29 27 26 24 24 26 25 25 25 25 23 23 24 21 23 22 22 28 30 30
58 58 57 57 58 58 59 60 60 60 58 58 57 53 41 28 49 51 45 40 39 36 33 35 32 30 29 26 28 26 23 22 21 23 22 24 22 22 22 23 21 23 29 30 30
58 57 57 57 57 58 59 60 60 60 57 57 58 50 29 36 44 47 41 38 39 36 36 35 33 31 29 28 24 22 21 18 17 24 24 21 20 22 22 21 23 26 28 29 30
57 57 57 57 57 58 59 59 58 58 56 57 50 42 31 41 35 36 37 35 35 33 32 32 31 29 28 22 18 21 13 18 20 24 23 20 20 22 23 23 22 27 28 29 29
57 57 57 57 57 58 59 58 55 55 54 54 49 37 34 28 34 34 34 35 33 32 29 30 28 25 25 18 16 15 19 19 18 22 22 22 21 23 24 24 24 28 29 29 29
57 57 57 57 58 59 56 50 45 45 47 38 34 33 31 35 36 33 35 33 33 27 21 29 19 18 21 22 17 17 19 19 21 24 23 23 22 23 23 24 27 28 28 29 29
57 57 57 57 58 59 54 48 44 43 40 43 42 36 35 34 33 33 33 28 28 25 28 26 20 20 22 22 22 22 21 21 23 25 23 23 22 22 27 27 27 28 28 28 28
57 57 57 58 59 56 51 48 44 42 40 41 42 42 38 35 36 35 31 29 28 26 27 25 25 27 24 25 24 24 23 22 22 24 22 22 21 23 27 29 29 29 28 28 27
57 57 57 58 56 53 48 46 44 43 36 36 38 36 34 39 35 32 32 30 28 26 27 27 28 27 27 25 26 25 26 24 25 21 20 23 18 19 25 27 28 27 27 26 26
57 57 57 58 53 49 49 46 44 39 28 34 34 35 32 37 32 29 31 30 28 28 28 27 28 26 26 26 27 26 26 24 21 20 21 19 18 18 26 26 26 27 26 26 26
57 57 57 58 55 53 46 46 44 35 29 30 29 28 28 26 28 29 29 29 30 28 26 28 25 25 26 25 27 25 22 24 24 21 20 20 19 19 23 24 26 26 26 26 26
57 57 57 57 54 51 48 47 38 34 34 29 26 27 25 24 25 27 27 25 26 26 26 25 25 25 23 22 23 23 23 20 18 18 20 23 21 20 26 28 27 26 25 25 25
57 57 57 58 55 48 51 45 33 36 36 31 28 27 24 24 24 25 24 25 23 24 23 23 23 24 24 22 22 22 23 22 11 15 18 23 22 21 28 27 27 25 25 24 24
57 56 57 58 53 51 49 39 36 37 37 28 29 25 25 26 25 23 24 23 24 24 25 24 24 24 23 26 25 24 22 24 22 12 17 22 23 27 27 27 26 26 26 25 24
55 55 54 55 53 51 46 40 39 40 38 31 27 29 27 31 26 22 23 26 28 26 28 26 24 27 28 27 26 25 27 23 23 12 14 18 21 20 25 26 27 27 27 27 26
50 47 51 54 53 48 41 41 42 41 35 33 31 33 31 32 30 25 28 30 29 29 32 31 27 27 28 27 25 25 24 25 24 21 12 10 13 23 26 26 26 26 27 27 27
48 43 50 53 44 44 42 42 41 36 38 36 34 33 32 29 32 29 29 29 30 33 31 33 29 25 27 28 28 26 25 25 21 18 21 20 17 29 27 27 26 26 26 26 25
44 42 49 50 39 38 40 41 39 36 38 38 37 34 33 29 29 29 29 33 32 32 32 32 27 17 22 21 28 26 25 26 28 24 15 17 19 28 27 26 26 26 26 25 24
42 37 42 44 43 39 38 38 39 42 39 40 38 36 33 32 32 28 30 33 35 35 38 35 28 24 23 18 24 24 24 25 24 21 19 21 23 27 27 26 26 27 27 27 25
42 38 39 34 38 39 40 39 37 37 40 39 38 38 35 31 30 29 31 32 33 36 33 31 23 26 24 23 25 24 24 24 22 22 21 21 22 22 26 27 26 22 21 26 26
37 36 37 38 39 38 39 37 37 38 38 37 37 37 36 35 32 31 31 31 29 31 31 28 24 25 19 26 27 27 26 25 24 24 22 22 21 22 21 19 17 18 21 27 29
38 38 36 36 38 37 37 37 37 38 38 38 38 36 35 36 33 31 31 31 32 31 29 27 25 23 23 18 16 15 17 21 21 22 21 18 20 17 15 16 17 18 16 19 22
Lifted_Index
9 9 9 8 8 8 8 8 8 8 7 7 7 7 8 8 9 9 9 9 9 9 10 10 10 10 9 8 8 8 6 5 5 5 6 6 6 7 7 6 7 7 8 8 9
9 9 9 9 8 8 8 8 8 7 7 7 7 8 8 8 9 9 9 9 8 9 10 10 10 9 9 8 8 7 6 5 6 6 6 7 7 7 6 6 6 7 8 8 9
9 9 9 9 9 8 8 8 7 7 7 7 8 8 8 8 8 9 9 8 8 9 10 10 9 9 8 8 8 7 6 6 7 7 7 7 7 7 6 6 6 7 8 8 9
9 9 9 9 9 8 8 7 7 7 7 7 8 8 8 7 7 8 9 8 9 10 10 10 9 9 8 8 8 7 7 7 7 8 8 7 7 7 6 6 7 7 8 8 8
9 9 9 9 9 8 8 7 7 7 7 7 8 8 7 7 7 8 8 9 10 10 10 10 9 8 8 7 7 7 7 7 7 7 7 7 6 6 6 7 7 7 8 8 8
8 9 9 9 9 8 7 7 6 6 7 7 7 7 7 7 7 8 8 9 10 10 10 10 9 8 8 7 7 7 6 6 7 7 7 6 6 6 6 6 7 7 8 8 8
8 8 8 8 8 7 7 6 6 6 7 7 7 7 7 7 8 8 8 9 9 10 10 10 9 8 8 7 7 7 6 6 6 6 7 6 5 5 6 6 7 7 8 8 8
7 8 8 8 7 7 6 6 6 6 6 6 7 7 7 7 8 8 8 8 9 9 10 10 9 8 7 7 7 6 5 5 6 6 7 6 5 5 6 6 7 7 7 8 8
7 7 8 7 7 6 5 5 6 6 6 6 7 7 7 7 8 8 8 8 8 9 9 9 8 8 7 6 6 5 5 5 5 6 7 6 6 6 6 7 7 7 7 7 8
7 7 7 7 6 5 5 5 5 6 6 6 6 6 6 7 7 8 9 8 8 8 8 8 7 6 6 6 5 5 5 5 5 6 6 6 6 6 6 7 7 6 6 7 7
7 7 7 7 6 5 5 5 5 6 6 6 6 6 6 6 7 8 8 8 7 7 6 6 6 5 5 6 5 5 5 5 5 6 6 6 6 6 6 6 6 6 6 7 7
6 7 7 6 5 5 4 5 5 5 5 5 5 5 6 6 6 6 7 6 6 5 5 5 5 5 5 6 5 5 5 4 5 6 6 6 6 6 6 6 6 6 6 6 7
6 6 6 6 5 4 4 4 4 5 5 5 5 5 5 5 5 5 6 5 5 5 5 5 5 5 5 5 5 5 4 5 5 6 6 6 5 5 6 6 6 6 6 7 7
6 6 5 5 4 4 4 3 4 4 4 4 5 5 5 5 5 5 6 6 5 5 5 5 5 5 5 4 4 4 5 5 5 5 5 5 5 5 6 6 6 6 6 7 8
5 5 5 4 4 4 3 3 3 3 3 4 5 6 5 5 5 6 6 6 6 5 5 5 5 5 4 5 5 5 5 5 5 5 5 4 4 5 6 6 5 5 5 6 7
5 5 4 4 4 3 3 3 2 2 3 4 5 5 4 4 5 6 6 6 6 5 4 5 5 5 5 5 5 5 5 5 5 4 4 4 5 5 6 5 5 5 5 6 7
5 5 4 4 3 3 3 2 2 2 4 4 4 4 3 3 4 5 5 5 5 4 4 4 4 5 5 5 5 5 4 3 3 2 3 4 5 5 6 5 5 5 5 6 7
4 4 4 4 3 3 2 2 2 3 4 4 4 3 3 3 3 4 4 4 4 4 3 3 3 4 4 4 4 4 4 3 2 2 3 4 5 6 6 5 5 5 6 6 7
3 3 3 3 3 2 2 1 2 3 3 3 3 3 3 2 2 3 3 3 4 4 3 2 3 3 4 4 4 4 4 3 2 2 2 3 5 5 6 6 5 5 6 6 7
2 3 3 3 2 2 2 2 3 3 3 3 3 3 2 2 2 2 3 3 3 3 3 3 3 3 4 3 3 3 3 3 3 2 2 2 3 5 6 6 6 5 5 6 6
3 3 3 3 2 2 2 2 3 4 4 3 2 2 2 2 2 2 3 3 3 3 4 4 3 4 4 3 3 3 3 3 3 3 2 2 3 5 6 6 6 5 5 5 6
4 4 4 4 2 2 2 3 4 4 3 3 2 2 2 2 2 2 3 3 3 4 3 4 4 4 4 4 3 3 3 4 4 3 3 3 3 5 6 5 5 5 5 6 6
4 5 5 5 3 3 2 3 3 4 3 3 2 2 2 2 2 2 3 3 3 4 3 3 4 4 4 4 4 4 4 4 4 4 3 3 4 5 5 5 4 4 5 6 7
4 5 5 5 4 4 3 3 3 4 3 3 2 2 2 2 2 3 3 3 3 4 4 4 4 4 3 4 4 4 4 4 4 4 4 4 4 5 5 4 4 4 5 7 8
4 4 5 5 5 4 4 4 4 4 4 3 3 2 2 2 2 3 3 3 3 4 4 4 4 4 3 4 4 4 5 5 4 4 4 4 5 5 4 4 5 6 7 8 8
5 4 4 4 4 4 5 5 4 4 4 3 3 3 2 2 2 3 3 3 3 4 4 4 4 4 4 4 4 4 5 5 5 4 4 5 5 5 4 5 6 7 7 8 8
6 5 4 4 4 4 4 5 4 4 4 3 3 3 3 2 2 3 3 3 3 4 4 4 4 4 4 4 4 4 5 5 4 4 4 5 5 5 5 5 6 7 7 7 7